Language: 


Des rapports , des résumés tant et plus, au choix de chacun....


Données statistiques de la station
Quotidien Rapport Mai 10, 2017 Unités:  Métrique    Anglais   les deux
« Précédent Jour
Suivant Jour »
Quotidien Hebdomadaire Mensuel Annuel Actuel
  Haut: Bas: Moyen:
Température: 6.1 °C 0.0 °C 3 °C
Pt de rosée: 3.0 °C 2.0 °C 2.1 °C
Humidité: 89 % 0 % 65 %
Vitesse du vent: 7.9 km/h 0.0 km/h 0.7 km/h
Rafales: 10.1 km/h - -
Vent:- - ESE
Pression: 985.0 hPa 0.0 hPa -
Précipitation: 0.0 mm    
Historical Graphs
 
 
Données statistiques pour Mai 10, 2017
Heure Température Point de rosée Pression Vent Vitesse du vent Refales Humidité Pluie (taux horaire)
00:00 6.1 °C 2.0 °C 985.0 hPa NE 4.0 km/h 8.7 km/h 74 % 0.0 mm
00:05 6.1 °C 2.0 °C 985.0 hPa NE 5.8 km/h 6.9 km/h 75 % 0.0 mm
00:10 6.0 °C 2.0 °C 985.0 hPa NNE 2.6 km/h 7.2 km/h 76 % 0.0 mm
00:15 5.9 °C 3.0 °C 985.0 hPa NE 7.6 km/h 7.9 km/h 77 % 0.0 mm
00:20 5.8 °C 3.0 °C 985.0 hPa NE 6.4 km/h 7.9 km/h 77 % 0.0 mm
00:25 5.7 °C 2.0 °C 984.0 hPa NE 6.1 km/h 7.9 km/h 78 % 0.0 mm
00:30 5.7 °C 2.0 °C 984.0 hPa NE 6.1 km/h 7.6 km/h 78 % 0.0 mm
00:35 5.7 °C 2.0 °C 984.0 hPa North 5.0 km/h 7.6 km/h 78 % 0.0 mm
00:40 5.6 °C 3.0 °C 979.9 hPa NE 5.8 km/h 7.6 km/h 79 % 0.0 mm
00:45 5.6 °C 3.0 °C 979.9 hPa NNE 4.3 km/h 7.6 km/h 80 % 0.0 mm
00:50 5.5 °C 3.0 °C 979.9 hPa NNE 4.3 km/h 8.7 km/h 81 % 0.0 mm
00:55 5.4 °C 3.0 °C 983.0 hPa North 3.2 km/h 8.7 km/h 80 % 0.0 mm
01:00 5.4 °C 3.0 °C 983.0 hPa North 5.5 km/h 9.3 km/h 82 % 0.0 mm
01:05 5.5 °C 3.0 °C 981.9 hPa NNE 7.9 km/h 10.1 km/h 83 % 0.0 mm
01:11 5.5 °C 3.0 °C 981.9 hPa NE 5.0 km/h 10.1 km/h 83 % 0.0 mm
01:16 5.5 °C 3.0 °C 981.9 hPa NE 4.0 km/h 10.1 km/h 83 % 0.0 mm
01:21 5.4 °C 3.0 °C 981.9 hPa NNE 5.0 km/h 9.0 km/h 84 % 0.0 mm
01:26 5.4 °C 3.0 °C 981.9 hPa NNE 6.4 km/h 9.7 km/h 84 % 0.0 mm
01:31 5.4 °C 3.0 °C 981.9 hPa NE 5.0 km/h 9.7 km/h 84 % 0.0 mm
01:36 5.4 °C 3.0 °C 979.9 hPa NNE 4.7 km/h 9.0 km/h 84 % 0.0 mm
01:41 5.4 °C 3.0 °C 979.9 hPa NNE 3.5 km/h 9.0 km/h 85 % 0.0 mm
01:46 5.4 °C 3.0 °C 979.9 hPa Calm   9.0 km/h 85 % 0.0 mm
01:51 5.4 °C 3.0 °C 978.9 hPa NNW 4.3 km/h 9.0 km/h 84 % 0.0 mm
01:56 5.3 °C 3.0 °C 978.9 hPa NE 5.0 km/h 6.9 km/h 85 % 0.0 mm
02:01 5.3 °C 3.0 °C 978.9 hPa NE 1.8 km/h 6.9 km/h 85 % 0.0 mm
02:06 5.3 °C 3.0 °C 976.2 hPa Calm   6.9 km/h 85 % 0.0 mm
02:11 5.2 °C 3.0 °C 976.2 hPa Calm   7.2 km/h 85 % 0.0 mm
02:16 5.1 °C 3.0 °C 976.2 hPa NE 6.4 km/h 8.7 km/h 85 % 0.0 mm
02:21 5.0 °C 3.0 °C 971.1 hPa NE 4.3 km/h 9.0 km/h 86 % 0.0 mm
02:26 4.9 °C 3.0 °C 971.1 hPa North 6.1 km/h 9.3 km/h 86 % 0.0 mm
02:31 4.8 °C 3.0 °C 971.1 hPa NNE 2.1 km/h 9.3 km/h 86 % 0.0 mm
02:36 4.7 °C 3.0 °C 975.2 hPa Calm   9.0 km/h 86 % 0.0 mm
02:41 4.7 °C 3.0 °C 975.2 hPa NNE 4.3 km/h 7.9 km/h 87 % 0.0 mm
02:46 4.7 °C 3.0 °C 975.2 hPa Calm   6.4 km/h 87 % 0.0 mm
02:51 4.7 °C 3.0 °C 973.1 hPa NE 5.5 km/h 6.4 km/h 87 % 0.0 mm
02:56 4.7 °C 3.0 °C 973.1 hPa Calm   6.4 km/h 87 % 0.0 mm
03:01 4.6 °C 3.0 °C 973.1 hPa North 1.4 km/h 6.4 km/h 86 % 0.0 mm
03:06 4.5 °C 3.0 °C 970.1 hPa NE 4.3 km/h 6.9 km/h 86 % 0.0 mm
03:11 4.5 °C 3.0 °C 970.1 hPa North 4.3 km/h 6.9 km/h 86 % 0.0 mm
03:16 4.4 °C 2.0 °C 970.1 hPa Calm   6.4 km/h 86 % 0.0 mm
03:22 4.3 °C 2.0 °C 969.1 hPa Calm   5.8 km/h 86 % 0.0 mm
03:27 4.3 °C 3.0 °C 969.1 hPa Calm   5.5 km/h 87 % 0.0 mm
03:32 4.2 °C 3.0 °C 969.1 hPa Calm   5.8 km/h 87 % 0.0 mm
03:37 4.2 °C 3.0 °C 962.0 hPa NNE 2.6 km/h 9.3 km/h 87 % 0.0 mm
03:42 4.1 °C 2.0 °C 962.0 hPa North 4.0 km/h 9.3 km/h 87 % 0.0 mm
03:47 4.1 °C 2.0 °C 962.0 hPa NNE 5.5 km/h 6.1 km/h 87 % 0.0 mm
03:52 4.0 °C 2.0 °C 958.9 hPa NNE 4.0 km/h 8.7 km/h 88 % 0.0 mm
03:57 4.0 °C 2.0 °C 958.9 hPa Calm   8.7 km/h 88 % 0.0 mm
04:02 4.0 °C 2.0 °C 958.9 hPa NNE 4.3 km/h 6.9 km/h 88 % 0.0 mm
04:07 4.0 °C 3.0 °C 949.1 hPa NE 3.2 km/h 6.9 km/h 89 % 0.0 mm
04:12 4.0 °C 2.0 °C 949.1 hPa Calm   6.1 km/h 88 % 0.0 mm
04:17 4.0 °C 2.0 °C 949.1 hPa North 1.8 km/h 5.8 km/h 88 % 0.0 mm
04:22 3.9 °C 3.0 °C 941.0 hPa Calm   5.8 km/h 89 % 0.0 mm
04:27 3.9 °C 3.0 °C 941.0 hPa NE 4.3 km/h 6.1 km/h 89 % 0.0 mm
04:32 3.8 °C 2.0 °C 941.0 hPa NE 4.3 km/h 6.9 km/h 89 % 0.0 mm
04:37 3.8 °C 2.0 °C 926.1 hPa Calm   6.9 km/h 89 % 0.0 mm
04:42 3.8 °C 2.0 °C 926.1 hPa North 6.4 km/h 6.9 km/h 89 % 0.0 mm
04:47 3.8 °C 2.0 °C 926.1 hPa North 4.0 km/h 6.9 km/h 89 % 0.0 mm
04:52 3.8 °C 2.0 °C 846.8 hPa Calm   6.4 km/h 89 % 0.0 mm
04:57 3.8 °C 2.0 °C 846.8 hPa Calm   6.4 km/h 89 % 0.0 mm
05:02 3.8 °C 2.0 °C 846.8 hPa Calm   6.4 km/h 89 % 0.0 mm
05:03 3.8 °C 2.0 °C 846.8 hPa Calm   6.4 km/h 89 % 0.0 mm
05:08 3.8 °C 2.0 °C 846.8 hPa Calm   6.4 km/h 89 % 0.0 mm
05:13 3.8 °C 2.0 °C 846.8 hPa Calm   6.4 km/h 89 % 0.0 mm
05:18 3.8 °C 2.0 °C 846.8 hPa Calm   6.4 km/h 89 % 0.0 mm
05:23 3.8 °C 2.0 °C 846.8 hPa Calm   6.4 km/h 89 % 0.0 mm
05:28 3.8 °C 2.0 °C 846.8 hPa Calm   6.4 km/h 89 % 0.0 mm
05:33 3.8 °C 2.0 °C 846.8 hPa Calm   6.4 km/h 89 % 0.0 mm
05:38 3.8 °C 2.0 °C 846.8 hPa Calm   6.4 km/h 89 % 0.0 mm
05:43 3.8 °C 2.0 °C 846.8 hPa Calm   6.4 km/h 89 % 0.0 mm
05:48 3.8 °C 2.0 °C 846.8 hPa Calm   6.4 km/h 89 % 0.0 mm
05:53 3.8 °C 2.0 °C 846.8 hPa Calm   6.4 km/h 89 % 0.0 mm
05:58 3.8 °C 2.0 °C 846.8 hPa Calm   6.4 km/h 89 % 0.0 mm
06:03 3.8 °C 2.0 °C 846.8 hPa Calm   6.4 km/h 89 % 0.0 mm
06:08 3.8 °C 2.0 °C 846.8 hPa Calm   6.4 km/h 89 % 0.0 mm
06:13 3.8 °C 2.0 °C 846.8 hPa Calm   6.4 km/h 89 % 0.0 mm
06:18 3.8 °C 2.0 °C 846.8 hPa Calm   6.4 km/h 89 % 0.0 mm
06:23 3.8 °C 2.0 °C 846.8 hPa Calm   6.4 km/h 89 % 0.0 mm
06:28 3.8 °C 2.0 °C 846.8 hPa Calm   6.4 km/h 89 % 0.0 mm
06:33 3.8 °C 2.0 °C 846.8 hPa Calm   6.4 km/h 89 % 0.0 mm
06:38 3.8 °C 2.0 °C 846.8 hPa Calm   6.4 km/h 89 % 0.0 mm
06:43 3.8 °C 2.0 °C 846.8 hPa Calm   6.4 km/h 89 % 0.0 mm
06:49 3.8 °C 2.0 °C 846.8 hPa Calm   6.4 km/h 89 % 0.0 mm
06:54 3.8 °C 2.0 °C 846.8 hPa Calm   6.4 km/h 89 % 0.0 mm
06:59 3.8 °C 2.0 °C 846.8 hPa Calm   6.4 km/h 89 % 0.0 mm
07:04 3.8 °C 2.0 °C 846.8 hPa Calm   6.4 km/h 89 % 0.0 mm
07:09 3.8 °C 2.0 °C 846.8 hPa Calm   6.4 km/h 89 % 0.0 mm
07:14 3.8 °C 2.0 °C 846.8 hPa Calm   6.4 km/h 89 % 0.0 mm
07:19 3.8 °C 2.0 °C 846.8 hPa Calm   6.4 km/h 89 % 0.0 mm
07:24 3.8 °C 2.0 °C 846.8 hPa Calm   6.4 km/h 89 % 0.0 mm
07:29 3.8 °C 2.0 °C 846.8 hPa Calm   6.4 km/h 89 % 0.0 mm
07:34 3.8 °C 2.0 °C 846.8 hPa Calm   6.4 km/h 89 % 0.0 mm
07:39 3.8 °C 2.0 °C 846.8 hPa Calm   6.4 km/h 89 % 0.0 mm
07:44 3.8 °C 2.0 °C 846.8 hPa Calm   6.4 km/h 89 % 0.0 mm
07:49 3.8 °C 2.0 °C 846.8 hPa Calm   6.4 km/h 89 % 0.0 mm
07:54 3.8 °C 2.0 °C 846.8 hPa Calm   6.4 km/h 89 % 0.0 mm
07:59 3.8 °C 2.0 °C 846.8 hPa Calm   6.4 km/h 89 % 0.0 mm
08:04 3.8 °C 2.0 °C 846.8 hPa Calm   6.4 km/h 89 % 0.0 mm
08:09 3.8 °C 2.0 °C 846.8 hPa Calm   6.4 km/h 89 % 0.0 mm
08:11 3.8 °C 2.0 °C 846.8 hPa Calm   6.4 km/h 89 % 0.0 mm
08:16 3.8 °C 2.0 °C 846.8 hPa Calm   6.4 km/h 89 % 0.0 mm
08:21 3.8 °C 2.0 °C 846.8 hPa Calm   6.4 km/h 89 % 0.0 mm
08:26 3.8 °C 2.0 °C 846.8 hPa Calm   6.4 km/h 89 % 0.0 mm
08:31 3.8 °C 2.0 °C 846.8 hPa Calm   6.4 km/h 89 % 0.0 mm
08:36 3.8 °C 2.0 °C 846.8 hPa Calm   6.4 km/h 89 % 0.0 mm
08:41 3.8 °C 2.0 °C 846.8 hPa Calm   6.4 km/h 89 % 0.0 mm
08:46 3.8 °C 2.0 °C 846.8 hPa Calm   6.4 km/h 89 % 0.0 mm
08:51 3.8 °C 2.0 °C 846.8 hPa Calm   6.4 km/h 89 % 0.0 mm
08:56 3.8 °C 2.0 °C 846.8 hPa Calm   6.4 km/h 89 % 0.0 mm
09:01 3.8 °C 2.0 °C 846.8 hPa Calm   6.4 km/h 89 % 0.0 mm
09:06 3.8 °C 2.0 °C 846.8 hPa Calm   6.4 km/h 89 % 0.0 mm
09:11 3.8 °C 2.0 °C 846.8 hPa Calm   6.4 km/h 89 % 0.0 mm
09:16 3.8 °C 2.0 °C 846.8 hPa Calm   6.4 km/h 89 % 0.0 mm
09:21 3.8 °C 2.0 °C 846.8 hPa Calm   6.4 km/h 89 % 0.0 mm
09:26 3.8 °C 2.0 °C 846.8 hPa Calm   6.4 km/h 89 % 0.0 mm
09:31 3.8 °C 2.0 °C 846.8 hPa Calm   6.4 km/h 89 % 0.0 mm
09:36 3.8 °C 2.0 °C 846.8 hPa Calm   6.4 km/h 89 % 0.0 mm
09:41 3.8 °C 2.0 °C 846.8 hPa Calm   6.4 km/h 89 % 0.0 mm
09:46 3.8 °C 2.0 °C 846.8 hPa Calm   6.4 km/h 89 % 0.0 mm
09:51 3.8 °C 2.0 °C 846.8 hPa Calm   6.4 km/h 89 % 0.0 mm
09:56 3.8 °C 2.0 °C 846.8 hPa Calm   6.4 km/h 89 % 0.0 mm
10:02 3.8 °C 2.0 °C 846.8 hPa Calm   6.4 km/h 89 % 0.0 mm
10:07 3.8 °C 2.0 °C 846.8 hPa Calm   6.4 km/h 89 % 0.0 mm
10:12 3.8 °C 2.0 °C 846.8 hPa Calm   6.4 km/h 89 % 0.0 mm
10:17 3.8 °C 2.0 °C 846.8 hPa Calm   6.4 km/h 89 % 0.0 mm
10:22 3.8 °C 2.0 °C 846.8 hPa Calm   6.4 km/h 89 % 0.0 mm
10:27 3.8 °C 2.0 °C 846.8 hPa Calm   6.4 km/h 89 % 0.0 mm
10:32 3.8 °C 2.0 °C 846.8 hPa Calm   6.4 km/h 89 % 0.0 mm
10:37 3.8 °C 2.0 °C 846.8 hPa Calm   6.4 km/h 89 % 0.0 mm
10:42 3.8 °C 2.0 °C 846.8 hPa Calm   6.4 km/h 89 % 0.0 mm
10:47 3.8 °C 2.0 °C 846.8 hPa Calm   6.4 km/h 89 % 0.0 mm
10:52 3.8 °C 2.0 °C 846.8 hPa Calm   6.4 km/h 89 % 0.0 mm
10:57 3.8 °C 2.0 °C 846.8 hPa Calm   6.4 km/h 89 % 0.0 mm
11:02 3.8 °C 2.0 °C 846.8 hPa Calm   6.4 km/h 89 % 0.0 mm
11:07 3.8 °C 2.0 °C 846.8 hPa Calm   6.4 km/h 89 % 0.0 mm
11:12 3.8 °C 2.0 °C 846.8 hPa Calm   6.4 km/h 89 % 0.0 mm
11:17 3.8 °C 2.0 °C 846.8 hPa Calm   6.4 km/h 89 % 0.0 mm
11:22 3.8 °C 2.0 °C 846.8 hPa Calm   6.4 km/h 89 % 0.0 mm
11:27 3.8 °C 2.0 °C 846.8 hPa Calm   6.4 km/h 89 % 0.0 mm
11:32 3.8 °C 2.0 °C 846.8 hPa Calm   6.4 km/h 89 % 0.0 mm
11:37 3.8 °C 2.0 °C 846.8 hPa Calm   6.4 km/h 89 % 0.0 mm
11:42 3.8 °C 2.0 °C 846.8 hPa Calm   6.4 km/h 89 % 0.0 mm
11:47 3.8 °C 2.0 °C 846.8 hPa Calm   6.4 km/h 89 % 0.0 mm
11:52 3.8 °C 2.0 °C 846.8 hPa Calm   6.4 km/h 89 % 0.0 mm
11:58 3.8 °C 2.0 °C 846.8 hPa Calm   6.4 km/h 89 % 0.0 mm
12:03 3.8 °C 2.0 °C 846.8 hPa Calm   6.4 km/h 89 % 0.0 mm
12:08 3.8 °C 2.0 °C 846.8 hPa Calm   6.4 km/h 89 % 0.0 mm
12:13 3.8 °C 2.0 °C 846.8 hPa Calm   6.4 km/h 89 % 0.0 mm
12:18 3.8 °C 2.0 °C 846.8 hPa Calm   6.4 km/h 89 % 0.0 mm
12:23 3.8 °C 2.0 °C 846.8 hPa Calm   6.4 km/h 89 % 0.0 mm
12:28 3.8 °C 2.0 °C 846.8 hPa Calm   6.4 km/h 89 % 0.0 mm
12:33 3.8 °C 2.0 °C 846.8 hPa Calm   6.4 km/h 89 % 0.0 mm
12:38 3.8 °C 2.0 °C 846.8 hPa Calm   6.4 km/h 89 % 0.0 mm
12:43 3.8 °C 2.0 °C 846.8 hPa Calm   6.4 km/h 89 % 0.0 mm
12:48 3.8 °C 2.0 °C 846.8 hPa Calm   6.4 km/h 89 % 0.0 mm
12:53 3.8 °C 2.0 °C 846.8 hPa Calm   6.4 km/h 89 % 0.0 mm
12:58 3.8 °C 2.0 °C 846.8 hPa Calm   6.4 km/h 89 % 0.0 mm
13:03 3.8 °C 2.0 °C 846.8 hPa Calm   6.4 km/h 89 % 0.0 mm
13:08 3.8 °C 2.0 °C 846.8 hPa Calm   6.4 km/h 89 % 0.0 mm
13:13 3.8 °C 2.0 °C 846.8 hPa Calm   6.4 km/h 89 % 0.0 mm
13:18 3.8 °C 2.0 °C 846.8 hPa Calm   6.4 km/h 89 % 0.0 mm
13:23 3.8 °C 2.0 °C 846.8 hPa Calm   6.4 km/h 89 % 0.0 mm
13:28 3.8 °C 2.0 °C 846.8 hPa Calm   6.4 km/h 89 % 0.0 mm
13:34 3.8 °C 2.0 °C 846.8 hPa Calm   6.4 km/h 89 % 0.0 mm
13:39 3.8 °C 2.0 °C 846.8 hPa Calm   6.4 km/h 89 % 0.0 mm
13:44 3.8 °C 2.0 °C 846.8 hPa Calm   6.4 km/h 89 % 0.0 mm
13:49 3.8 °C 2.0 °C 846.8 hPa Calm   6.4 km/h 89 % 0.0 mm
13:54 3.8 °C 2.0 °C 846.8 hPa Calm   6.4 km/h 89 % 0.0 mm
13:59 3.8 °C 2.0 °C 846.8 hPa Calm   6.4 km/h 89 % 0.0 mm
14:04 3.8 °C 2.0 °C 846.8 hPa Calm   6.4 km/h 89 % 0.0 mm
14:09 3.8 °C 2.0 °C 846.8 hPa Calm   6.4 km/h 89 % 0.0 mm
14:14 3.8 °C 2.0 °C 846.8 hPa Calm   6.4 km/h 89 % 0.0 mm
14:19 3.8 °C 2.0 °C 846.8 hPa Calm   6.4 km/h 89 % 0.0 mm
14:24 3.8 °C 2.0 °C 846.8 hPa Calm   6.4 km/h 89 % 0.0 mm
14:29 3.8 °C 2.0 °C 846.8 hPa Calm   6.4 km/h 89 % 0.0 mm
14:34 3.8 °C 2.0 °C 846.8 hPa Calm   6.4 km/h 89 % 0.0 mm
14:39 3.8 °C 2.0 °C 846.8 hPa Calm   6.4 km/h 89 % 0.0 mm
14:44 3.8 °C 2.0 °C 846.8 hPa Calm   6.4 km/h 89 % 0.0 mm
14:49 3.8 °C 2.0 °C 846.8 hPa Calm   6.4 km/h 89 % 0.0 mm
14:54 3.8 °C 2.0 °C 846.8 hPa Calm   6.4 km/h 89 % 0.0 mm
14:59 3.8 °C 2.0 °C 846.8 hPa Calm   6.4 km/h 89 % 0.0 mm
15:04 3.8 °C 2.0 °C 846.8 hPa Calm   6.4 km/h 89 % 0.0 mm
15:10 3.8 °C 2.0 °C 846.8 hPa Calm   6.4 km/h 89 % 0.0 mm
15:15 3.8 °C 2.0 °C 846.8 hPa Calm   6.4 km/h 89 % 0.0 mm
15:20 3.8 °C 2.0 °C 846.8 hPa Calm   6.4 km/h 89 % 0.0 mm
15:25 3.8 °C 2.0 °C 846.8 hPa Calm   6.4 km/h 89 % 0.0 mm
15:30 3.8 °C 2.0 °C 846.8 hPa Calm   6.4 km/h 89 % 0.0 mm
15:35 3.8 °C 2.0 °C 846.8 hPa Calm   6.4 km/h 89 % 0.0 mm
15:40 3.8 °C 2.0 °C 846.8 hPa Calm   6.4 km/h 89 % 0.0 mm
15:46 3.8 °C 2.0 °C 846.8 hPa Calm   6.4 km/h 89 % 0.0 mm
15:51 3.8 °C 2.0 °C 846.8 hPa Calm   6.4 km/h 89 % 0.0 mm
15:56 3.8 °C 2.0 °C 846.8 hPa Calm   6.4 km/h 89 % 0.0 mm
16:01 3.8 °C 2.0 °C 846.8 hPa Calm   6.4 km/h 89 % 0.0 mm
16:06 3.8 °C 2.0 °C 846.8 hPa Calm   6.4 km/h 89 % 0.0 mm
16:11 3.8 °C 2.0 °C 846.8 hPa Calm   6.4 km/h 89 % 0.0 mm
16:16 3.8 °C 2.0 °C 846.8 hPa Calm   6.4 km/h 89 % 0.0 mm
16:21 3.8 °C 2.0 °C 846.8 hPa Calm   6.4 km/h 89 % 0.0 mm
16:26 3.8 °C 2.0 °C 846.8 hPa Calm   6.4 km/h 89 % 0.0 mm
16:31 3.8 °C 2.0 °C 846.8 hPa Calm   6.4 km/h 89 % 0.0 mm
16:36 3.8 °C 2.0 °C 846.8 hPa Calm   6.4 km/h 89 % 0.0 mm
16:41 3.8 °C 2.0 °C 846.8 hPa Calm   6.4 km/h 89 % 0.0 mm
16:46 3.8 °C 2.0 °C 846.8 hPa Calm   6.4 km/h 89 % 0.0 mm
16:51 3.8 °C 2.0 °C 846.8 hPa Calm   6.4 km/h 89 % 0.0 mm
16:56 3.8 °C 2.0 °C 846.8 hPa Calm   6.4 km/h 89 % 0.0 mm
17:00 3.8 °C 2.0 °C 846.8 hPa Calm   6.4 km/h 89 % 0.0 mm
17:05 3.8 °C 2.0 °C 846.8 hPa Calm   6.4 km/h 89 % 0.0 mm
17:10 3.8 °C 2.0 °C 846.8 hPa Calm   6.4 km/h 89 % 0.0 mm
17:15 3.8 °C 2.0 °C 846.8 hPa Calm   6.4 km/h 89 % 0.0 mm
17:20 3.8 °C 2.0 °C 846.8 hPa Calm   6.4 km/h 89 % 0.0 mm
17:25 3.8 °C 2.0 °C 846.8 hPa Calm   6.4 km/h 89 % 0.0 mm
17:30 3.8 °C 2.0 °C 846.8 hPa Calm   6.4 km/h 89 % 0.0 mm
18:00 0.0 °C 2.0 °C 0.0 hPa Calm     0 % 0.0 mm
18:05 0.0 °C 2.0 °C 0.0 hPa Calm     0 % 0.0 mm
18:10 0.0 °C 2.0 °C 0.0 hPa Calm     0 % 0.0 mm
18:15 0.0 °C 2.0 °C 0.0 hPa Calm     0 % 0.0 mm
18:20 0.0 °C 2.0 °C 0.0 hPa Calm     0 % 0.0 mm
18:25 0.0 °C 2.0 °C 0.0 hPa Calm     0 % 0.0 mm
18:30 0.0 °C 2.0 °C 0.0 hPa Calm     0 % 0.0 mm
18:35 0.0 °C 2.0 °C 0.0 hPa Calm     0 % 0.0 mm
18:40 0.0 °C 2.0 °C 0.0 hPa Calm     0 % 0.0 mm
18:45 0.0 °C 2.0 °C 0.0 hPa Calm     0 % 0.0 mm
18:50 0.0 °C 2.0 °C 0.0 hPa Calm     0 % 0.0 mm
18:51 0.0 °C 2.0 °C 0.0 hPa Calm     0 % 0.0 mm
18:56 0.0 °C 2.0 °C 0.0 hPa Calm     0 % 0.0 mm
19:01 0.0 °C 2.0 °C 0.0 hPa Calm     0 % 0.0 mm
19:06 0.0 °C 2.0 °C 0.0 hPa Calm     0 % 0.0 mm
19:11 0.0 °C 2.0 °C 0.0 hPa Calm     0 % 0.0 mm
19:16 0.0 °C 2.0 °C 0.0 hPa Calm     0 % 0.0 mm
19:21 0.0 °C 2.0 °C 0.0 hPa Calm     0 % 0.0 mm
19:26 0.0 °C 2.0 °C 0.0 hPa Calm     0 % 0.0 mm
19:31 0.0 °C 2.0 °C 0.0 hPa Calm     0 % 0.0 mm
19:36 0.0 °C 2.0 °C 0.0 hPa Calm     0 % 0.0 mm
19:41 0.0 °C 2.0 °C 0.0 hPa Calm     0 % 0.0 mm
19:46 0.0 °C 2.0 °C 0.0 hPa Calm     0 % 0.0 mm
19:51 0.0 °C 2.0 °C 0.0 hPa Calm     0 % 0.0 mm
19:56 0.0 °C 2.0 °C 0.0 hPa Calm     0 % 0.0 mm
20:01 0.0 °C 2.0 °C 0.0 hPa Calm     0 % 0.0 mm
20:06 0.0 °C 2.0 °C 0.0 hPa Calm     0 % 0.0 mm
20:11 0.0 °C 2.0 °C 0.0 hPa Calm     0 % 0.0 mm
20:16 0.0 °C 2.0 °C 0.0 hPa Calm     0 % 0.0 mm
20:21 0.0 °C 2.0 °C 0.0 hPa Calm     0 % 0.0 mm
20:26 0.0 °C 2.0 °C 0.0 hPa Calm     0 % 0.0 mm
20:31 0.0 °C 2.0 °C 0.0 hPa Calm     0 % 0.0 mm
20:36 0.0 °C 2.0 °C 0.0 hPa Calm     0 % 0.0 mm
20:41 0.0 °C 2.0 °C 0.0 hPa Calm     0 % 0.0 mm
20:46 0.0 °C 2.0 °C 0.0 hPa Calm     0 % 0.0 mm
20:51 0.0 °C 2.0 °C 0.0 hPa Calm     0 % 0.0 mm
20:56 0.0 °C 2.0 °C 0.0 hPa Calm     0 % 0.0 mm
21:01 0.0 °C 2.0 °C 0.0 hPa Calm     0 % 0.0 mm
21:06 0.0 °C 2.0 °C 0.0 hPa Calm     0 % 0.0 mm
21:11 0.0 °C 2.0 °C 0.0 hPa Calm     0 % 0.0 mm
21:17 0.0 °C 2.0 °C 0.0 hPa Calm     0 % 0.0 mm
21:22 0.0 °C 2.0 °C 0.0 hPa Calm     0 % 0.0 mm
21:27 0.0 °C 2.0 °C 0.0 hPa Calm     0 % 0.0 mm
21:32 0.0 °C 2.0 °C 0.0 hPa Calm     0 % 0.0 mm
21:37 0.0 °C 2.0 °C 0.0 hPa Calm     0 % 0.0 mm
21:42 0.0 °C 2.0 °C 0.0 hPa Calm     0 % 0.0 mm
21:47 0.0 °C 2.0 °C 0.0 hPa Calm     0 % 0.0 mm
21:52 0.0 °C 2.0 °C 0.0 hPa Calm     0 % 0.0 mm
21:57 0.0 °C 2.0 °C 0.0 hPa Calm     0 % 0.0 mm
22:02 0.0 °C 2.0 °C 0.0 hPa Calm     0 % 0.0 mm
22:07 0.0 °C 2.0 °C 0.0 hPa Calm     0 % 0.0 mm
22:12 0.0 °C 2.0 °C 0.0 hPa Calm     0 % 0.0 mm
22:17 0.0 °C 2.0 °C 0.0 hPa Calm     0 % 0.0 mm
22:22 0.0 °C 2.0 °C 0.0 hPa Calm     0 % 0.0 mm
22:27 0.0 °C 2.0 °C 0.0 hPa Calm     0 % 0.0 mm
22:32 0.0 °C 2.0 °C 0.0 hPa Calm     0 % 0.0 mm
22:37 0.0 °C 2.0 °C 0.0 hPa Calm     0 % 0.0 mm
22:42 0.0 °C 2.0 °C 0.0 hPa Calm     0 % 0.0 mm
22:47 0.0 °C 2.0 °C 0.0 hPa Calm     0 % 0.0 mm
22:52 0.0 °C 2.0 °C 0.0 hPa Calm     0 % 0.0 mm
22:57 0.0 °C 2.0 °C 0.0 hPa Calm     0 % 0.0 mm
23:02 0.0 °C 2.0 °C 0.0 hPa Calm     0 % 0.0 mm
23:03 0.0 °C 2.0 °C 0.0 hPa Calm     0 % 0.0 mm
23:08 0.0 °C 2.0 °C 0.0 hPa Calm     0 % 0.0 mm
23:13 0.0 °C 2.0 °C 0.0 hPa Calm     0 % 0.0 mm
23:18 0.0 °C 2.0 °C 0.0 hPa Calm     0 % 0.0 mm
23:23 0.0 °C 2.0 °C 0.0 hPa Calm     0 % 0.0 mm
23:28 0.0 °C 2.0 °C 0.0 hPa Calm     0 % 0.0 mm
23:33 0.0 °C 2.0 °C 0.0 hPa Calm     0 % 0.0 mm
23:38 0.0 °C 2.0 °C 0.0 hPa Calm     0 % 0.0 mm
23:43 0.0 °C 2.0 °C 0.0 hPa Calm     0 % 0.0 mm
23:48 0.0 °C 2.0 °C 0.0 hPa Calm     0 % 0.0 mm
23:53 0.0 °C 2.0 °C 0.0 hPa Calm     0 % 0.0 mm
23:58 0.0 °C 2.0 °C 0.0 hPa Calm     0 % 0.0 mm
Le Gheer Warneton
Courtoisie de Weather Underground - 2.25 mb

Mise a jour : 18/12/2017 21:33:12
Généré par Cumulus 1.9.4 (1099)